Location: Taukkyan
(23.1052°N, 94.0030°E)
Time: 11:36:15
(UTC+00:00)

Cosmos 2237 Rocket - Pass Details

Date: 06 July 2020
Orbit: 835 x 850 km, 71.0° (Epoch: 14 August)

Event Time Altitude Azimuth Distance (km) Brightness Sun altitude
Exits shadow 15:12:06 19° 41° (NE) 1,926 4.1 -30.5°
Drops below altitude 10° 15:13:42 10° 34° (NE) 2,472 4.7 -30.7°
Sets 15:16:15 0° 28° (NNE) 3,410 5.6 -31.1°
